Voltar ao catálogo

ONEWEB-0311

AtivoComunicaçõesPO
NORAD 49097·PAYLOAD·🇬🇧 United Kingdom

Lançado Aug 21, 2021 de Baikonur Cosmodrome

Loading…

Próximas Passagens (próximas 24 horas)

TLE

AtualizadoSource: CelesTrak SupGP

Época: Sep 14, 2026, 17:22 UTC

1 49097C 21075Y   26257.72412454  .00002479  00000+0  63924-2 0  2579
2 49097  87.9208 348.0818 0002074 114.3235 357.9719 13.17649634    15

Acompanhe ONEWEB-0311 em tempo real com AllMySat

Download on the App Store